Wind_Speed
53 53 52 51 48 49 52 51 51 51 50 48 47 47 47 46 44 43 41 40 38 37 35 34 34 33 33 32 31 30 30 30 30 30 30 30 30 31 32 32 32 33 33
53 54 52 51 50 49 52 50 51 52 51 51 49 48 47 47 46 45 44 42 40 39 37 37 36 36 35 34 32 32 32 32 32 32 32 32 32 32 32 33 33 33 33
51 53 51 49 49 50 52 50 49 51 51 51 49 49 48 49 48 46 45 43 42 41 40 39 39 38 37 36 35 35 34 34 34 33 33 33 33 32 33 33 34 34 35
47 49 50 48 49 49 49 51 50 48 48 50 48 48 47 47 46 46 47 45 44 43 42 41 40 39 39 38 37 37 37 37 36 36 35 34 34 34 34 35 36 36 37
45 48 49 49 49 50 50 50 51 50 48 50 49 49 48 47 47 48 48 48 47 46 44 42 40 40 40 40 40 40 39 38 38 37 35 35 35 35 35 35 36 37 37
44 47 47 48 49 49 48 49 51 52 50 49 49 49 47 46 47 47 47 46 46 46 45 45 43 42 41 40 40 39 39 38 37 36 35 35 36 35 35 36 36 37 37
42 45 47 47 48 48 48 49 50 50 50 50 50 49 48 48 47 47 47 46 45 44 44 44 43 42 42 41 41 40 40 38 38 36 36 36 37 37 37 38 37 38 38
39 42 44 44 45 47 48 49 49 51 50 49 50 50 49 48 48 47 47 47 47 45 45 44 43 42 42 43 41 41 40 39 38 37 37 38 38 39 39 39 38 38 39
37 40 41 42 43 45 47 50 49 50 50 49 50 49 48 48 50 48 47 48 48 47 46 45 44 43 43 43 42 42 42 40 40 38 37 37 38 40 39 40 41 41 40
33 37 40 42 43 45 46 48 48 49 48 46 47 47 47 47 48 49 49 48 48 47 47 46 46 45 44 43 43 43 42 43 40 37 37 38 40 40 40 40 41 41 42
32 36 38 40 43 44 46 45 46 47 47 45 45 44 45 46 46 48 48 48 49 49 49 47 46 45 45 45 45 45 44 43 40 40 41 41 41 40 40 41 41 41 41
28 32 35 37 39 42 43 44 43 43 43 44 43 42 42 43 44 45 46 45 46 45 46 46 46 45 45 44 44 44 43 43 41 41 42 42 42 41 41 41 41 41 40
23 27 30 33 36 39 41 41 41 42 43 42 42 41 41 42 42 43 43 43 42 42 43 44 45 45 44 43 42 41 41 41 41 41 42 42 41 41 42 41 41 41 41
21 24 27 30 33 35 38 39 40 41 41 42 42 42 43 43 43 43 44 44 43 42 42 43 44 45 44 42 41 41 41 41 41 42 42 42 42 42 41 41 41 41 42
19 21 23 26 29 32 35 37 39 40 40 41 42 42 43 44 45 45 44 44 43 42 42 42 42 42 42 42 42 42 42 42 42 42 42 42 42 41 41 42 42 42 42
20 20 21 24 27 30 33 36 37 39 40 42 43 44 43 44 44 44 44 44 43 42 41 42 42 42 42 42 43 42 42 42 42 42 42 42 42 42 42 42 42 42 42
19 21 23 25 26 28 30 33 35 38 40 41 42 43 43 43 43 43 43 43 43 43 42 43 43 42 42 42 42 42 42 43 43 43 43 42 42 42 41 41 41 41 41
18 21 23 25 27 28 29 32 34 35 38 39 40 40 41 42 42 42 43 43 44 43 43 42 43 43 42 41 41 40 41 42 42 41 41 41 41 40 40 39 40 39 39
20 21 23 24 27 29 30 32 34 35 36 37 38 39 40 40 41 41 41 42 43 43 42 41 41 41 41 41 41 41 40 40 40 40 40 40 40 39 39 39 39 39 39
23 23 24 26 27 28 30 31 33 35 36 37 37 38 39 39 39 40 40 41 42 43 42 42 42 42 42 41 40 40 39 39 40 40 40 40 39 39 39 38 38 38 37
24 25 26 27 28 29 30 31 32 33 35 36 37 38 38 38 38 39 40 40 41 41 41 42 42 41 41 41 41 40 39 39 39 39 39 39 39 39 38 37 37 37 37
26 27 29 30 29 30 30 30 31 32 33 34 35 36 36 37 37 37 38 39 40 40 40 40 40 40 40 40 39 39 39 39 39 39 39 38 38 38 37 37 37 37 36
26 28 30 31 31 31 31 31 31 31 32 33 34 34 35 36 37 37 38 38 39 39 40 40 39 40 39 39 39 39 39 39 39 39 38 38 37 37 37 37 37 37 37
27 28 30 31 32 32 33 32 32 32 32 33 33 33 34 35 35 36 37 38 39 39 40 40 40 40 40 39 39 39 38 38 39 38 38 37 37 37 37 37 37 37 37
27 28 28 29 30 31 32 33 32 32 32 33 34 34 34 34 34 35 35 36 37 38 38 38 38 38 38 38 38 38 38 38 38 38 37 37 37 37 37 37 37 36 36
27 27 27 28 28 30 31 31 32 33 33 33 33 34 34 34 35 35 35 36 37 38 39 38 38 38 39 39 39 38 38 38 38 38 37 37 37 37 37 37 36 36 35
Wind_Direction
214 213 213 214 212 212 212 213 213 214 214 216 218 219 222 225 226 228 230 233 235 237 239 242 244 247 249 251 252 254 257 260 263 265 267 269 272 276 279 281 283 286 289
217 216 216 217 217 215 214 216 215 215 215 216 218 219 222 224 226 229 231 233 235 238 241 243 245 248 250 250 252 254 258 261 263 265 268 271 274 277 279 282 284 286 288
218 218 218 220 220 219 219 221 221 220 220 219 218 220 222 225 228 231 232 233 236 239 241 244 246 248 250 251 253 256 259 262 265 267 268 271 274 275 278 281 283 285 287
221 221 221 221 222 221 222 223 224 224 224 223 223 224 225 228 230 232 233 235 237 238 241 244 247 249 251 253 256 258 261 264 265 267 268 270 273 276 277 280 283 286 288
223 223 224 224 223 225 227 227 227 227 229 228 229 230 230 230 231 233 235 236 239 240 242 245 248 250 252 254 257 259 261 264 265 266 267 270 273 276 278 281 284 286 288
225 226 226 226 226 228 230 231 230 230 232 232 232 232 231 233 234 235 236 237 239 241 243 246 249 251 253 255 258 261 262 264 265 265 267 271 275 276 279 282 284 286 287
227 227 228 228 229 231 233 234 235 234 235 235 234 234 234 235 236 238 239 240 241 243 246 248 249 253 254 256 260 262 263 264 264 266 270 274 276 278 280 282 284 286 287
229 230 230 232 233 233 235 236 238 237 238 238 238 238 239 238 238 240 243 244 246 247 249 250 252 254 255 258 261 261 263 265 267 271 272 274 275 278 281 282 283 285 287
235 235 233 234 236 236 237 238 239 239 239 242 241 240 241 243 243 244 246 245 247 248 250 252 254 256 258 260 261 262 265 265 268 271 272 273 276 279 280 280 283 285 286
238 238 237 237 238 238 240 240 241 242 242 243 243 243 244 244 244 244 246 246 247 248 249 251 254 256 258 260 261 262 263 265 268 271 272 274 278 281 281 281 284 285 285
242 241 240 240 241 240 240 242 242 243 243 244 245 247 248 248 248 247 247 249 249 249 252 253 254 256 258 260 261 261 263 264 268 271 273 276 280 281 281 282 284 285 286
245 244 243 244 244 242 241 242 242 242 243 244 246 248 249 248 249 249 249 251 251 250 251 254 255 257 259 260 260 262 264 265 268 272 274 277 278 279 281 282 283 284 285
247 245 245 247 247 244 243 243 244 243 243 243 246 247 248 249 250 249 250 252 252 253 254 255 256 256 257 259 260 262 265 267 270 273 274 275 276 278 280 281 282 283 285
252 249 248 248 247 245 244 245 246 246 246 245 247 247 249 250 250 251 253 254 254 254 256 256 256 256 257 258 260 263 265 268 271 273 274 275 276 277 278 280 281 282 285
258 256 252 249 245 243 244 246 247 247 248 248 248 248 250 251 251 252 254 254 253 255 256 256 256 257 258 259 261 265 266 267 270 272 272 274 275 277 278 280 281 283 285
260 258 254 249 246 245 246 247 248 249 250 250 249 250 251 252 252 253 254 254 254 254 255 256 257 258 258 260 261 263 265 268 269 271 272 274 274 277 278 280 282 284 285
255 255 254 250 248 247 246 246 247 249 251 251 251 252 252 253 253 253 254 254 253 253 255 255 256 258 258 260 261 263 266 267 268 270 272 274 275 276 278 281 282 284 285
260 257 255 252 250 251 250 248 249 250 251 252 253 253 253 254 254 254 253 253 253 254 255 256 256 257 259 260 261 263 266 266 268 270 271 273 275 277 280 281 282 284 285
266 263 258 255 253 254 254 252 252 252 252 253 253 253 253 253 253 252 252 252 252 253 254 255 256 257 259 261 262 265 265 266 267 269 271 273 275 277 279 280 282 283 284
269 266 263 258 257 257 257 256 255 255 254 254 254 253 253 252 252 251 252 251 252 253 254 255 257 258 259 260 263 264 265 266 268 270 272 274 275 277 279 280 281 282 283
269 266 264 262 260 260 260 260 259 258 257 256 255 255 253 253 253 252 252 251 252 252 253 255 256 257 257 259 261 261 263 265 267 269 271 273 275 276 278 279 279 280 281
272 267 264 262 261 261 261 261 260 259 257 256 255 255 253 252 252 251 251 252 252 252 253 254 255 256 257 259 259 260 262 264 266 268 270 272 274 275 276 277 278 278 280
278 272 266 262 261 261 262 262 261 260 258 255 254 254 253 252 252 251 251 251 252 252 253 254 255 255 256 257 258 260 261 263 265 267 269 271 273 274 274 275 277 278 279
285 279 270 264 262 260 260 261 261 261 259 257 254 253 253 253 252 251 251 251 250 252 253 254 254 254 255 257 259 259 261 263 265 266 268 269 271 272 274 275 276 278 279
290 284 275 268 264 262 260 261 262 261 259 257 256 255 254 253 252 252 251 251 250 250 252 253 253 254 255 256 258 259 260 262 264 265 267 268 270 272 273 274 275 276 277
294 286 279 272 268 265 262 261 261 259 258 256 256 255 254 253 252 252 252 252 251 251 253 254 254 255 255 256 257 259 260 262 264 265 266 268 270 272 273 273 274 275 275
Height
5700 5707 5714 5721 5727 5734 5740 5747 5753 5760 5766 5772 5778 5783 5788 5793 5797 5801 5804 5808 5811 5814 5817 5819 5821 5823 5824 5826 5827 5828 5829 5830 5830 5830 5830 5830 5830 5829 5828 5827 5826 5825 5823
5694 5701 5707 5715 5722 5728 5734 5739 5745 5752 5759 5765 5770 5775 5780 5785 5789 5793 5797 5800 5804 5807 5809 5811 5814 5816 5817 5818 5820 5821 5822 5823 5823 5824 5823 5823 5824 5822 5821 5820 5819 5818 5816
5688 5695 5701 5708 5716 5723 5728 5733 5738 5744 5751 5756 5761 5766 5771 5775 5780 5785 5789 5793 5796 5799 5801 5803 5806 5808 5809 5811 5812 5813 5814 5815 5816 5816 5816 5816 5816 5816 5815 5813 5812 5811 5809
5683 5689 5696 5702 5709 5716 5721 5726 5732 5737 5743 5749 5755 5759 5763 5768 5773 5777 5781 5784 5787 5790 5793 5795 5798 5800 5801 5803 5805 5806 5807 5807 5808 5808 5808 5809 5808 5808 5807 5806 5805 5803 5802
5678 5684 5689 5695 5702 5708 5713 5719 5725 5730 5735 5741 5747 5751 5756 5760 5764 5767 5771 5775 5779 5781 5785 5787 5789 5791 5793 5795 5796 5797 5798 5799 5800 5800 5800 5800 5800 5799 5799 5798 5797 5795 5794
5673 5678 5683 5688 5695 5700 5706 5712 5716 5723 5728 5732 5738 5743 5747 5751 5755 5758 5762 5766 5769 5773 5776 5779 5781 5783 5785 5786 5788 5789 5790 5791 5791 5791 5792 5792 5792 5791 5790 5789 5788 5787 5785
5667 5673 5677 5682 5688 5693 5698 5704 5708 5714 5719 5724 5729 5734 5738 5742 5746 5750 5754 5757 5760 5764 5768 5770 5772 5774 5775 5777 5779 5780 5781 5781 5782 5782 5782 5783 5783 5782 5781 5780 5779 5778 5776
5662 5666 5671 5675 5680 5686 5690 5696 5701 5706 5710 5715 5720 5725 5729 5733 5737 5741 5744 5748 5752 5755 5758 5761 5763 5764 5766 5768 5769 5770 5771 5772 5772 5773 5773 5773 5773 5772 5772 5771 5770 5768 5767
5657 5661 5665 5669 5673 5678 5682 5687 5692 5696 5702 5706 5711 5715 5720 5723 5727 5731 5735 5738 5741 5745 5748 5751 5753 5755 5757 5758 5759 5761 5762 5763 5763 5764 5764 5764 5763 5763 5762 5761 5760 5759 5758
5651 5654 5658 5662 5666 5670 5675 5679 5683 5687 5693 5697 5702 5706 5710 5713 5717 5720 5725 5728 5731 5734 5737 5740 5742 5744 5746 5748 5750 5751 5752 5753 5753 5754 5754 5754 5754 5753 5752 5751 5750 5748 5747
5645 5648 5651 5655 5658 5662 5666 5670 5674 5679 5684 5689 5693 5696 5700 5703 5706 5710 5713 5717 5721 5724 5726 5729 5732 5734 5736 5738 5739 5741 5742 5742 5743 5744 5744 5744 5744 5743 5742 5741 5740 5738 5736
5639 5641 5644 5647 5650 5654 5658 5662 5666 5671 5675 5680 5684 5687 5690 5693 5696 5699 5703 5707 5710 5713 5716 5719 5721 5724 5726 5727 5729 5730 5731 5732 5732 5733 5733 5733 5733 5733 5732 5730 5729 5727 5725
5632 5634 5637 5640 5643 5646 5650 5654 5659 5662 5666 5670 5674 5678 5681 5684 5686 5690 5693 5696 5700 5703 5705 5708 5710 5712 5715 5716 5718 5719 5720 5721 5722 5722 5723 5722 5722 5721 5720 5719 5718 5716 5714
5627 5628 5630 5633 5635 5638 5642 5646 5650 5654 5657 5661 5664 5668 5671 5674 5677 5679 5682 5685 5688 5691 5694 5697 5699 5701 5704 5706 5707 5708 5709 5710 5711 5711 5711 5711 5711 5710 5709 5708 5706 5705 5703
5622 5623 5624 5626 5628 5631 5634 5638 5641 5644 5648 5651 5654 5657 5660 5663 5666 5669 5671 5674 5677 5680 5682 5685 5687 5690 5692 5694 5696 5697 5698 5699 5699 5700 5700 5700 5699 5698 5698 5697 5695 5694 5692
5617 5618 5619 5620 5622 5624 5626 5629 5632 5635 5638 5641 5644 5647 5649 5652 5655 5657 5660 5662 5665 5668 5671 5673 5676 5678 5681 5683 5684 5686 5686 5687 5688 5688 5688 5688 5687 5687 5686 5685 5684 5682 5680
5611 5612 5613 5614 5615 5617 5619 5621 5623 5626 5628 5631 5633 5636 5638 5640 5643 5645 5648 5651 5654 5656 5659 5661 5664 5667 5669 5671 5672 5674 5675 5676 5676 5677 5677 5676 5676 5675 5674 5673 5672 5670 5668
5605 5606 5606 5607 5608 5609 5611 5612 5614 5616 5618 5620 5622 5624 5626 5629 5631 5633 5636 5638 5641 5644 5647 5649 5652 5655 5657 5659 5660 5661 5662 5663 5664 5665 5665 5665 5664 5664 5663 5662 5660 5659 5657
5599 5599 5599 5599 5600 5602 5603 5604 5605 5607 5608 5610 5611 5613 5615 5617 5619 5621 5624 5627 5630 5632 5635 5638 5640 5642 5645 5646 5648 5649 5650 5651 5652 5653 5653 5653 5653 5652 5651 5650 5649 5648 5646
5593 5592 5592 5592 5593 5593 5594 5595 5596 5597 5598 5599 5600 5602 5604 5606 5608 5610 5612 5615 5618 5621 5623 5625 5628 5631 5633 5635 5636 5637 5639 5640 5641 5641 5641 5641 5641 5641 5640 5639 5638 5637 5635
5585 5585 5584 5584 5584 5585 5585 5586 5586 5587 5587 5588 5590 5591 5593 5595 5597 5599 5601 5604 5607 5609 5612 5614 5617 5619 5621 5622 5624 5625 5627 5628 5629 5630 5630 5630 5630 5629 5628 5627 5627 5626 5625
5577 5576 5575 5575 5575 5575 5576 5576 5576 5577 5577 5578 5579 5580 5582 5584 5586 5588 5590 5593 5595 5598 5600 5602 5605 5607 5609 5611 5612 5614 5615 5616 5617 5618 5618 5618 5618 5617 5617 5616 5615 5614 5613
5568 5566 5565 5565 5565 5565 5566 5566 5566 5566 5567 5567 5568 5570 5571 5573 5575 5577 5579 5582 5584 5586 5588 5591 5593 5595 5597 5599 5601 5602 5603 5604 5605 5606 5606 5606 5606 5606 5606 5605 5604 5603 5602
5559 5556 5555 5554 5555 5555 5556 5556 5556 5556 5557 5557 5559 5560 5561 5563 5565 5566 5568 5571 5573 5575 5577 5579 5581 5584 5586 5587 5589 5590 5591 5593 5593 5594 5595 5595 5595 5595 5595 5594 5593 5592 5591
5550 5546 5544 5544 5544 5544 5545 5545 5546 5546 5547 5547 5548 5550 5551 5553 5554 5556 5558 5560 5562 5564 5566 5568 5570 5572 5574 5576 5577 5578 5580 5581 5582 5583 5583 5584 5584 5584 5583 5583 5582 5581 5581
5540 5537 5536 5535 5534 5534 5534 5535 5535 5536 5537 5537 5538 5539 5541 5542 5544 5546 5547 5549 5551 5552 5554 5557 5559 5560 5562 5564 5566 5567 5568 5569 5570 5571 5572 5572 5573 5572 5572 5572 5571 5570 5570